Year,Month,Day,Hour,Minute,Value (Times are PST for windgust in km/hr)
2011,07,25,00,00,3.20
2011,07,25,00,01,3.20
2011,07,25,00,02,4.80
2011,07,25,00,03,4.80
2011,07,25,00,04,3.20
2011,07,25,00,05,4.80
2011,07,25,00,06,3.20
2011,07,25,00,07,4.80
2011,07,25,00,08,4.80
2011,07,25,00,09,4.80
2011,07,25,00,10,3.20
2011,07,25,00,11,6.40
2011,07,25,00,12,3.20
2011,07,25,00,13,3.20
2011,07,25,00,14,3.20
2011,07,25,00,15,3.20
2011,07,25,00,17,3.20
2011,07,25,00,18,3.20
2011,07,25,00,19,3.20
2011,07,25,00,20,3.20
2011,07,25,00,21,1.60
2011,07,25,00,22,3.20
2011,07,25,00,23,1.60
2011,07,25,00,24,6.40
2011,07,25,00,25,8.10
2011,07,25,00,26,6.40
2011,07,25,00,27,6.40
2011,07,25,00,28,4.80
2011,07,25,00,29,6.40
2011,07,25,00,30,6.40
2011,07,25,00,31,4.80
2011,07,25,00,32,4.80
2011,07,25,00,33,9.60
2011,07,25,00,34,8.10
2011,07,25,00,35,9.60
2011,07,25,00,36,8.10
2011,07,25,00,37,11.30
2011,07,25,00,38,8.10
2011,07,25,00,39,9.60
2011,07,25,00,40,8.10
2011,07,25,00,41,6.40
2011,07,25,00,42,9.60
2011,07,25,00,43,6.40
2011,07,25,00,44,8.10
2011,07,25,00,45,11.30
2011,07,25,00,46,8.10
2011,07,25,00,47,4.80
2011,07,25,00,48,16.10
2011,07,25,00,49,9.60
2011,07,25,00,50,8.10
2011,07,25,00,51,9.60
2011,07,25,00,52,11.30
2011,07,25,00,53,8.10
2011,07,25,00,54,11.30
2011,07,25,00,55,6.40
2011,07,25,00,56,8.10
2011,07,25,00,57,4.80
2011,07,25,00,58,3.20
2011,07,25,00,59,4.80
2011,07,25,01,00,3.20
2011,07,25,01,01,1.60
2011,07,25,01,02,4.80
2011,07,25,01,03,4.80
2011,07,25,01,04,4.80
2011,07,25,01,05,1.60
2011,07,25,01,06,8.10
2011,07,25,01,07,1.60
2011,07,25,01,08,3.20
2011,07,25,01,09,1.60
2011,07,25,01,10,1.60
2011,07,25,01,11,3.20
2011,07,25,01,14,1.60
2011,07,25,01,16,1.60
2011,07,25,01,18,1.60
2011,07,25,01,21,1.60
2011,07,25,01,23,1.60
2011,07,25,01,24,4.80
2011,07,25,01,25,1.60
2011,07,25,01,26,1.60
2011,07,25,01,46,3.20
2011,07,25,01,47,1.60
2011,07,25,02,05,1.60
2011,07,25,02,06,4.80
2011,07,25,02,07,6.40
2011,07,25,02,08,8.10
2011,07,25,02,09,6.40
2011,07,25,02,10,4.80
2011,07,25,02,11,6.40
2011,07,25,02,12,6.40
2011,07,25,02,13,8.10
2011,07,25,02,14,4.80
2011,07,25,02,15,8.10
2011,07,25,02,16,6.40
2011,07,25,02,17,9.60
2011,07,25,02,18,6.40
2011,07,25,02,19,8.10
2011,07,25,02,20,4.80
2011,07,25,02,21,4.80
2011,07,25,02,22,4.80
2011,07,25,02,23,1.60
2011,07,25,02,24,3.20
2011,07,25,02,25,8.10
2011,07,25,02,26,3.20
2011,07,25,02,27,1.60
2011,07,25,02,28,1.60
2011,07,25,02,29,3.20
2011,07,25,02,30,4.80
2011,07,25,02,31,3.20
2011,07,25,02,32,1.60
2011,07,25,02,33,1.60
2011,07,25,02,34,4.80
2011,07,25,02,35,4.80
2011,07,25,02,36,1.60
2011,07,25,02,37,1.60
2011,07,25,02,38,4.80
2011,07,25,02,39,4.80
2011,07,25,02,40,1.60
2011,07,25,02,41,4.80
2011,07,25,02,42,8.10
2011,07,25,02,43,8.10
2011,07,25,02,44,6.40
2011,07,25,02,45,3.20
2011,07,25,02,46,1.60
2011,07,25,02,47,3.20
2011,07,25,02,48,6.40
2011,07,25,02,49,3.20
2011,07,25,02,50,4.80
2011,07,25,02,51,8.10
2011,07,25,02,52,14.50
2011,07,25,02,53,11.30
2011,07,25,02,54,8.10
2011,07,25,02,55,8.10
2011,07,25,02,56,6.40
2011,07,25,02,57,3.20
2011,07,25,02,58,3.20
2011,07,25,02,59,3.20
2011,07,25,03,00,4.80
2011,07,25,03,01,4.80
2011,07,25,03,02,4.80
2011,07,25,03,03,3.20
2011,07,25,03,04,3.20
2011,07,25,03,05,1.60
2011,07,25,03,08,1.60
2011,07,25,03,10,1.60
2011,07,25,03,11,1.60
2011,07,25,03,12,1.60
2011,07,25,03,13,3.20
2011,07,25,03,14,6.40
2011,07,25,03,15,6.40
2011,07,25,03,16,4.80
2011,07,25,03,17,3.20
2011,07,25,03,18,3.20
2011,07,25,03,19,1.60
2011,07,25,03,22,1.60
2011,07,25,03,23,1.60
2011,07,25,03,24,1.60
2011,07,25,03,25,3.20
2011,07,25,03,26,3.20
2011,07,25,03,27,1.60
2011,07,25,03,28,6.40
2011,07,25,03,29,6.40
2011,07,25,03,30,4.80
2011,07,25,03,31,4.80
2011,07,25,03,32,4.80
2011,07,25,03,43,1.60
2011,07,25,03,53,1.60
2011,07,25,03,54,6.40
2011,07,25,03,55,4.80
2011,07,25,03,56,6.40
2011,07,25,03,57,8.10
2011,07,25,03,58,8.10
2011,07,25,03,59,3.20
2011,07,25,04,00,6.40
2011,07,25,04,01,6.40
2011,07,25,04,02,3.20
2011,07,25,04,03,4.80
2011,07,25,04,04,3.20
2011,07,25,04,05,4.80
2011,07,25,04,06,4.80
2011,07,25,04,07,1.60
2011,07,25,04,08,6.40
2011,07,25,04,09,4.80
2011,07,25,04,10,6.40
2011,07,25,04,11,4.80
2011,07,25,04,12,1.60
2011,07,25,04,40,3.20
2011,07,25,04,41,3.20
2011,07,25,04,42,3.20
2011,07,25,04,43,8.10
2011,07,25,04,44,3.20
2011,07,25,04,45,3.20
2011,07,25,04,46,6.40
2011,07,25,04,47,6.40
2011,07,25,04,48,4.80
2011,07,25,04,49,1.60
2011,07,25,04,50,1.60
2011,07,25,04,51,4.80
2011,07,25,04,54,1.60
2011,07,25,04,58,3.20
2011,07,25,05,00,1.60
2011,07,25,05,04,4.80
2011,07,25,05,05,1.60
2011,07,25,05,06,3.20
2011,07,25,05,07,3.20
2011,07,25,05,11,1.60
2011,07,25,05,12,4.80
2011,07,25,05,13,3.20
2011,07,25,05,15,3.20
2011,07,25,05,16,3.20
2011,07,25,05,17,3.20
2011,07,25,05,18,4.80
2011,07,25,05,19,8.10
2011,07,25,05,20,8.10
2011,07,25,05,21,8.10
2011,07,25,05,22,8.10
2011,07,25,05,23,3.20
2011,07,25,05,24,4.80
2011,07,25,05,25,9.60
2011,07,25,05,26,6.40
2011,07,25,05,27,4.80
2011,07,25,05,28,8.10
2011,07,25,05,29,6.40
2011,07,25,05,30,8.10
2011,07,25,05,31,8.10
2011,07,25,05,32,6.40
2011,07,25,05,33,6.40
2011,07,25,05,34,4.80
2011,07,25,05,35,8.10
2011,07,25,05,36,6.40
2011,07,25,05,37,6.40
2011,07,25,05,38,4.80
2011,07,25,05,39,4.80
2011,07,25,05,40,3.20
2011,07,25,05,41,6.40
2011,07,25,05,42,3.20
2011,07,25,05,43,11.30
2011,07,25,05,44,4.80
2011,07,25,05,45,3.20
2011,07,25,05,47,1.60
2011,07,25,05,48,3.20
2011,07,25,05,49,1.60
2011,07,25,05,50,1.60
2011,07,25,05,51,3.20
2011,07,25,05,52,4.80
2011,07,25,05,53,3.20
2011,07,25,05,55,8.10
2011,07,25,05,56,4.80
2011,07,25,06,03,3.20
2011,07,25,06,04,1.60
2011,07,25,06,16,3.20
2011,07,25,06,17,4.80
2011,07,25,06,18,3.20
2011,07,25,06,19,6.40
2011,07,25,06,20,6.40
2011,07,25,06,21,6.40
2011,07,25,06,22,11.30
2011,07,25,06,23,9.60
2011,07,25,06,24,8.10
2011,07,25,06,25,11.30
2011,07,25,06,26,4.80
2011,07,25,06,27,8.10
2011,07,25,06,28,9.60
2011,07,25,06,29,9.60
2011,07,25,06,30,14.50
2011,07,25,06,31,14.50
2011,07,25,06,32,12.90
2011,07,25,06,33,9.60
2011,07,25,06,34,9.60
2011,07,25,06,35,9.60
2011,07,25,06,36,14.50
2011,07,25,06,37,14.50
2011,07,25,06,38,8.10
2011,07,25,06,39,6.40
2011,07,25,06,40,8.10
2011,07,25,06,41,6.40
2011,07,25,06,42,9.60
2011,07,25,06,43,8.10
2011,07,25,06,44,6.40
2011,07,25,06,45,6.40
2011,07,25,06,46,4.80
2011,07,25,06,47,4.80
2011,07,25,06,48,8.10
2011,07,25,06,49,6.40
2011,07,25,06,50,9.60
2011,07,25,06,51,9.60
2011,07,25,06,52,9.60
2011,07,25,06,53,11.30
2011,07,25,06,54,9.60
2011,07,25,06,55,11.30
2011,07,25,06,56,9.60
2011,07,25,06,57,6.40
2011,07,25,06,58,14.50
2011,07,25,06,59,9.60
2011,07,25,07,00,8.10
2011,07,25,07,01,9.60
2011,07,25,07,02,9.60
2011,07,25,07,03,6.40
2011,07,25,07,04,6.40
2011,07,25,07,05,8.10
2011,07,25,07,06,4.80
2011,07,25,07,07,4.80
2011,07,25,07,08,6.40
2011,07,25,07,09,6.40
2011,07,25,07,10,6.40
2011,07,25,07,11,4.80
2011,07,25,07,12,6.40
2011,07,25,07,13,9.60
2011,07,25,07,14,6.40
2011,07,25,07,15,8.10
2011,07,25,07,16,6.40
2011,07,25,07,17,6.40
2011,07,25,07,18,3.20
2011,07,25,07,20,3.20
2011,07,25,07,21,6.40
2011,07,25,07,22,4.80
2011,07,25,07,23,9.60
2011,07,25,07,24,8.10
2011,07,25,07,25,6.40
2011,07,25,07,26,3.20
2011,07,25,07,27,3.20
2011,07,25,07,28,3.20
2011,07,25,07,29,9.60
2011,07,25,07,30,6.40
2011,07,25,07,31,4.80
2011,07,25,07,32,8.10
2011,07,25,07,33,8.10
2011,07,25,07,34,4.80
2011,07,25,07,35,4.80
2011,07,25,07,36,4.80
2011,07,25,07,37,4.80
2011,07,25,07,38,6.40
2011,07,25,07,39,4.80
2011,07,25,07,40,3.20
2011,07,25,07,41,4.80
2011,07,25,07,42,4.80
2011,07,25,07,43,4.80
2011,07,25,07,44,4.80
2011,07,25,07,45,4.80
2011,07,25,07,46,4.80
2011,07,25,07,47,4.80
2011,07,25,07,48,1.60
2011,07,25,07,49,8.10
2011,07,25,07,50,4.80
2011,07,25,07,51,8.10
2011,07,25,07,52,4.80
2011,07,25,07,53,4.80
2011,07,25,07,54,6.40
2011,07,25,07,55,8.10
2011,07,25,07,56,8.10
2011,07,25,07,57,6.40
2011,07,25,07,58,9.60
2011,07,25,07,59,8.10
2011,07,25,08,00,14.50
2011,07,25,08,01,9.60
2011,07,25,08,02,6.40
2011,07,25,08,03,4.80
2011,07,25,08,04,12.90
2011,07,25,08,05,6.40
2011,07,25,08,06,4.80
2011,07,25,08,07,20.90
2011,07,25,08,08,19.30
2011,07,25,08,09,14.50
2011,07,25,08,10,16.10
2011,07,25,08,11,11.30
2011,07,25,08,12,12.90
2011,07,25,08,13,19.30
2011,07,25,08,14,17.70
2011,07,25,08,15,17.70
2011,07,25,08,16,9.60
2011,07,25,08,17,11.30
2011,07,25,08,18,12.90
2011,07,25,08,19,19.30
2011,07,25,08,20,19.30
2011,07,25,08,21,14.50
2011,07,25,08,22,8.10
2011,07,25,08,23,11.30
2011,07,25,08,24,11.30
2011,07,25,08,25,16.10
2011,07,25,08,26,9.60
2011,07,25,08,27,11.30
2011,07,25,08,28,16.10
2011,07,25,08,29,14.50
2011,07,25,08,30,9.60
2011,07,25,08,31,9.60
2011,07,25,08,32,9.60
2011,07,25,08,33,6.40
2011,07,25,08,34,9.60
2011,07,25,08,35,8.10
2011,07,25,08,36,14.50
2011,07,25,08,37,19.30
2011,07,25,08,38,14.50
2011,07,25,08,39,8.10
2011,07,25,08,40,6.40
2011,07,25,08,41,11.30
2011,07,25,08,42,16.10
2011,07,25,08,43,11.30
2011,07,25,08,44,11.30
2011,07,25,08,45,8.10
2011,07,25,08,46,14.50
2011,07,25,08,47,16.10
2011,07,25,08,48,11.30
2011,07,25,08,49,8.10
2011,07,25,08,50,8.10
2011,07,25,08,51,9.60
2011,07,25,08,52,11.30
2011,07,25,08,53,16.10
2011,07,25,08,54,14.50
2011,07,25,08,55,17.70
2011,07,25,08,56,12.90
2011,07,25,08,57,11.30
2011,07,25,08,58,8.10
2011,07,25,08,59,8.10
2011,07,25,09,00,6.40
2011,07,25,09,01,9.60
2011,07,25,09,02,16.10
2011,07,25,09,03,11.30
2011,07,25,09,04,11.30
2011,07,25,09,05,16.10
2011,07,25,09,06,11.30
2011,07,25,09,07,8.10
2011,07,25,09,08,8.10
2011,07,25,09,09,16.10
2011,07,25,09,10,14.50
2011,07,25,09,11,9.60
2011,07,25,09,12,8.10
2011,07,25,09,13,11.30
2011,07,25,09,14,12.90
2011,07,25,09,15,11.30
2011,07,25,09,16,16.10
2011,07,25,09,17,12.90
2011,07,25,09,18,14.50
2011,07,25,09,19,9.60
2011,07,25,09,20,11.30
2011,07,25,09,21,16.10
2011,07,25,09,22,14.50
2011,07,25,09,23,14.50
2011,07,25,09,24,14.50
2011,07,25,09,25,17.70
2011,07,25,09,26,12.90
2011,07,25,09,27,17.70
2011,07,25,09,28,12.90
2011,07,25,09,29,17.70
2011,07,25,09,30,16.10
2011,07,25,09,31,9.60
2011,07,25,09,32,8.10
2011,07,25,09,33,14.50
2011,07,25,09,34,11.30
2011,07,25,09,35,9.60
2011,07,25,09,36,11.30
2011,07,25,09,37,11.30
2011,07,25,09,38,14.50
2011,07,25,09,39,11.30
2011,07,25,09,40,16.10
2011,07,25,09,41,12.90
2011,07,25,09,42,9.60
2011,07,25,09,43,11.30
2011,07,25,09,44,8.10
2011,07,25,09,45,6.40
2011,07,25,09,46,11.30
2011,07,25,09,47,19.30
2011,07,25,09,48,8.10
2011,07,25,09,49,11.30
2011,07,25,09,50,9.60
2011,07,25,09,51,8.10
2011,07,25,09,52,9.60
2011,07,25,09,53,11.30
2011,07,25,09,54,8.10
2011,07,25,09,55,11.30
2011,07,25,09,56,8.10
2011,07,25,09,57,11.30
2011,07,25,09,58,9.60
2011,07,25,09,59,9.60
2011,07,25,10,00,8.10
2011,07,25,10,01,8.10
2011,07,25,10,02,8.10
2011,07,25,10,03,14.50
2011,07,25,10,04,14.50
2011,07,25,10,05,11.30
2011,07,25,10,06,17.70
2011,07,25,10,07,9.60
2011,07,25,10,08,3.20
2011,07,25,10,09,11.30
2011,07,25,10,10,9.60
2011,07,25,10,11,8.10
2011,07,25,10,12,9.60
2011,07,25,10,13,11.30
2011,07,25,10,14,4.80
2011,07,25,10,15,3.20
2011,07,25,10,16,1.60
2011,07,25,10,17,8.10
2011,07,25,10,18,9.60
2011,07,25,10,19,8.10
2011,07,25,10,20,8.10
2011,07,25,10,21,4.80
2011,07,25,10,22,9.60
2011,07,25,10,23,8.10
2011,07,25,10,24,4.80
2011,07,25,10,25,4.80
2011,07,25,10,26,4.80
2011,07,25,10,27,8.10
2011,07,25,10,28,11.30
2011,07,25,10,29,6.40
2011,07,25,10,30,11.30
2011,07,25,10,31,14.50
2011,07,25,10,32,8.10
2011,07,25,10,33,8.10
2011,07,25,10,34,11.30
2011,07,25,10,35,11.30
2011,07,25,10,36,9.60
2011,07,25,10,37,3.20
2011,07,25,10,38,8.10
2011,07,25,10,39,4.80
2011,07,25,10,40,8.10
2011,07,25,10,41,3.20
2011,07,25,10,42,6.40
2011,07,25,10,43,8.10
2011,07,25,10,44,9.60
2011,07,25,10,45,9.60
2011,07,25,10,46,4.80
2011,07,25,10,47,4.80
2011,07,25,10,48,9.60
2011,07,25,10,49,9.60
2011,07,25,10,50,9.60
2011,07,25,10,51,4.80
2011,07,25,10,53,3.20
2011,07,25,10,54,3.20
2011,07,25,10,55,4.80
2011,07,25,10,56,4.80
2011,07,25,10,57,9.60
2011,07,25,10,58,8.10
2011,07,25,10,59,8.10
2011,07,25,11,00,8.10
2011,07,25,11,01,4.80
2011,07,25,11,02,3.20
2011,07,25,11,03,3.20
2011,07,25,11,04,14.50
2011,07,25,11,05,12.90
2011,07,25,11,06,12.90
2011,07,25,11,07,9.60
2011,07,25,11,08,12.90
2011,07,25,11,09,9.60
2011,07,25,11,10,6.40
2011,07,25,11,11,4.80
2011,07,25,11,12,4.80
2011,07,25,11,13,3.20
2011,07,25,11,14,4.80
2011,07,25,11,15,6.40
2011,07,25,11,16,6.40
2011,07,25,11,17,4.80
2011,07,25,11,18,6.40
2011,07,25,11,19,3.20
2011,07,25,11,20,3.20
2011,07,25,11,21,1.60
2011,07,25,11,22,8.10
2011,07,25,11,23,4.80
2011,07,25,11,24,3.20
2011,07,25,11,25,6.40
2011,07,25,11,26,6.40
2011,07,25,11,27,1.60
2011,07,25,11,28,4.80
2011,07,25,11,29,4.80
2011,07,25,11,30,8.10
2011,07,25,11,31,4.80
2011,07,25,11,32,3.20
2011,07,25,11,33,6.40
2011,07,25,11,34,6.40
2011,07,25,11,35,6.40
2011,07,25,11,36,3.20
2011,07,25,11,37,1.60
2011,07,25,11,38,1.60
2011,07,25,11,39,1.60
2011,07,25,11,40,3.20
2011,07,25,11,41,4.80
2011,07,25,11,42,1.60
2011,07,25,11,43,3.20
2011,07,25,11,44,1.60
2011,07,25,11,45,1.60
2011,07,25,11,46,1.60
2011,07,25,11,47,8.10
2011,07,25,11,48,4.80
2011,07,25,11,49,3.20
2011,07,25,11,50,6.40
2011,07,25,11,51,8.10
2011,07,25,11,52,6.40
2011,07,25,11,53,6.40
2011,07,25,11,54,3.20
2011,07,25,11,55,1.60
2011,07,25,11,56,4.80
2011,07,25,11,57,3.20
2011,07,25,11,58,8.10
2011,07,25,11,59,11.30
2011,07,25,12,00,6.40
2011,07,25,12,01,8.10
2011,07,25,12,02,8.10
2011,07,25,12,03,8.10
2011,07,25,12,04,8.10
2011,07,25,12,05,4.80
2011,07,25,12,06,4.80
2011,07,25,12,07,8.10
2011,07,25,12,08,4.80
2011,07,25,12,09,6.40
2011,07,25,12,10,3.20
2011,07,25,12,11,4.80
2011,07,25,12,12,6.40
2011,07,25,12,13,4.80
2011,07,25,12,15,1.60
2011,07,25,12,17,1.60
2011,07,25,12,18,1.60
2011,07,25,12,19,1.60
2011,07,25,12,22,3.20
2011,07,25,12,23,1.60
2011,07,25,12,25,3.20
2011,07,25,12,26,6.40
2011,07,25,12,27,3.20
2011,07,25,12,28,3.20
2011,07,25,12,29,1.60
2011,07,25,12,30,4.80
2011,07,25,12,31,1.60
2011,07,25,12,32,4.80
2011,07,25,12,33,6.40
2011,07,25,12,35,3.20
2011,07,25,12,36,3.20
2011,07,25,12,37,3.20
2011,07,25,12,38,3.20
2011,07,25,12,39,4.80
2011,07,25,12,40,4.80
2011,07,25,12,41,4.80
2011,07,25,12,42,11.30
2011,07,25,12,43,1.60
2011,07,25,12,44,3.20
2011,07,25,12,45,1.60
2011,07,25,12,46,9.60
2011,07,25,12,47,4.80
2011,07,25,12,48,3.20
2011,07,25,12,49,1.60
2011,07,25,12,50,1.60
2011,07,25,12,51,1.60
2011,07,25,12,52,11.30
2011,07,25,12,53,11.30
2011,07,25,12,54,12.90
2011,07,25,12,55,6.40
2011,07,25,12,56,1.60
2011,07,25,12,57,1.60
2011,07,25,12,58,1.60
2011,07,25,12,59,3.20
2011,07,25,13,00,6.40
2011,07,25,13,01,8.10
2011,07,25,13,02,6.40
2011,07,25,13,03,1.60
2011,07,25,13,04,14.50
2011,07,25,13,05,4.80
2011,07,25,13,06,4.80
2011,07,25,13,07,9.60
2011,07,25,13,08,4.80
2011,07,25,13,09,1.60
2011,07,25,13,10,6.40
2011,07,25,13,11,8.10
2011,07,25,13,12,8.10
2011,07,25,13,13,3.20
2011,07,25,13,14,8.10
2011,07,25,13,15,4.80
2011,07,25,13,16,4.80
2011,07,25,13,17,3.20
2011,07,25,13,18,8.10
2011,07,25,13,19,16.10
2011,07,25,13,20,19.30
2011,07,25,13,21,11.30
2011,07,25,13,22,3.20
2011,07,25,13,23,3.20
2011,07,25,13,24,4.80
2011,07,25,13,25,8.10
2011,07,25,13,26,4.80
2011,07,25,13,27,4.80
2011,07,25,13,28,6.40
2011,07,25,13,29,6.40
2011,07,25,13,30,4.80
2011,07,25,13,31,3.20
2011,07,25,13,32,17.70
2011,07,25,13,33,4.80
2011,07,25,13,34,9.60
2011,07,25,13,35,9.60
2011,07,25,13,36,3.20
2011,07,25,13,37,1.60
2011,07,25,13,38,6.40
2011,07,25,13,39,3.20
2011,07,25,13,40,8.10
2011,07,25,13,41,6.40
2011,07,25,13,42,8.10
2011,07,25,13,43,3.20
2011,07,25,13,44,8.10
2011,07,25,13,45,6.40
2011,07,25,13,46,4.80
2011,07,25,13,47,16.10
2011,07,25,13,48,11.30
2011,07,25,13,49,4.80
2011,07,25,13,50,6.40
2011,07,25,13,51,4.80
2011,07,25,13,52,25.70
2011,07,25,13,53,24.20
2011,07,25,13,54,12.90
2011,07,25,13,55,19.30
2011,07,25,13,56,19.30
2011,07,25,13,57,14.50
2011,07,25,13,58,17.70
2011,07,25,13,59,16.10
2011,07,25,14,00,19.30
2011,07,25,14,01,9.60
2011,07,25,14,02,17.70
2011,07,25,14,03,16.10
2011,07,25,14,04,9.60
2011,07,25,14,05,11.30
2011,07,25,14,06,6.40
2011,07,25,14,07,4.80
2011,07,25,14,08,4.80
2011,07,25,14,09,4.80
2011,07,25,14,10,12.90
2011,07,25,14,11,8.10
2011,07,25,14,12,19.30
2011,07,25,14,13,22.50
2011,07,25,14,14,17.70
2011,07,25,14,15,17.70
2011,07,25,14,16,12.90
2011,07,25,14,17,17.70
2011,07,25,14,18,12.90
2011,07,25,14,19,16.10
2011,07,25,14,20,22.50
2011,07,25,14,21,9.60
2011,07,25,14,22,22.50
2011,07,25,14,23,25.70
2011,07,25,14,24,19.30
2011,07,25,14,25,29.00
2011,07,25,14,26,22.50
2011,07,25,14,27,29.00
2011,07,25,14,28,17.70
2011,07,25,14,29,14.50
2011,07,25,14,30,22.50
2011,07,25,14,31,20.90
2011,07,25,14,32,24.20
2011,07,25,14,33,20.90
2011,07,25,14,34,24.20
2011,07,25,14,35,11.30
2011,07,25,14,36,20.90
2011,07,25,14,37,24.20
2011,07,25,14,38,20.90
2011,07,25,14,39,27.40
2011,07,25,14,40,22.50
2011,07,25,14,41,22.50
2011,07,25,14,42,14.50
2011,07,25,14,43,16.10
2011,07,25,14,44,19.30
2011,07,25,14,45,24.20
2011,07,25,14,46,14.50
2011,07,25,14,47,16.10
2011,07,25,14,48,11.30
2011,07,25,14,49,8.10
2011,07,25,14,50,12.90
2011,07,25,14,51,24.20
2011,07,25,14,52,12.90
2011,07,25,14,53,22.50
2011,07,25,14,54,32.20
2011,07,25,14,55,32.20
2011,07,25,14,56,20.90
2011,07,25,14,57,24.20
2011,07,25,14,58,33.80
2011,07,25,14,59,17.70
2011,07,25,15,00,24.20
2011,07,25,15,01,8.10
2011,07,25,15,02,16.10
2011,07,25,15,03,16.10
2011,07,25,15,04,19.30
2011,07,25,15,05,9.60
2011,07,25,15,06,9.60
2011,07,25,15,07,11.30
2011,07,25,15,08,14.50
2011,07,25,15,09,19.30
2011,07,25,15,10,11.30
2011,07,25,15,11,27.40
2011,07,25,15,12,19.30
2011,07,25,15,13,20.90
2011,07,25,15,14,20.90
2011,07,25,15,15,25.70
2011,07,25,15,16,20.90
2011,07,25,15,17,16.10
2011,07,25,15,18,16.10
2011,07,25,15,19,6.40
2011,07,25,15,20,17.70
2011,07,25,15,21,14.50
2011,07,25,15,22,27.40
2011,07,25,15,23,29.00
2011,07,25,15,24,33.80
2011,07,25,15,25,17.70
2011,07,25,15,26,25.70
2011,07,25,15,27,19.30
2011,07,25,15,28,25.70
2011,07,25,15,29,27.40
2011,07,25,15,30,24.20
2011,07,25,15,31,19.30
2011,07,25,15,32,33.80
2011,07,25,15,33,30.60
2011,07,25,15,34,33.80
2011,07,25,15,35,32.20
2011,07,25,15,36,29.00
2011,07,25,15,37,27.40
2011,07,25,15,38,24.20
2011,07,25,15,39,20.90
2011,07,25,15,40,32.20
2011,07,25,15,41,19.30
2011,07,25,15,42,19.30
2011,07,25,15,43,27.40
2011,07,25,15,44,20.90
2011,07,25,15,45,24.20
2011,07,25,15,46,17.70
2011,07,25,15,47,16.10
2011,07,25,15,48,19.30
2011,07,25,15,49,22.50
2011,07,25,15,50,27.40
2011,07,25,15,51,25.70
2011,07,25,15,52,29.00
2011,07,25,15,53,17.70
2011,07,25,15,54,25.70
2011,07,25,15,55,30.60
2011,07,25,15,56,24.20
2011,07,25,15,57,29.00
2011,07,25,15,58,20.90
2011,07,25,15,59,27.40
2011,07,25,16,00,17.70
2011,07,25,16,01,20.90
2011,07,25,16,02,9.60
2011,07,25,16,03,11.30
2011,07,25,16,04,11.30
2011,07,25,16,05,19.30
2011,07,25,16,06,22.50
2011,07,25,16,07,25.70
2011,07,25,16,08,20.90
2011,07,25,16,09,19.30
2011,07,25,16,10,27.40
2011,07,25,16,11,25.70
2011,07,25,16,12,14.50
2011,07,25,16,13,35.40
2011,07,25,16,14,24.20
2011,07,25,16,15,16.10
2011,07,25,16,16,17.70
2011,07,25,16,17,17.70
2011,07,25,16,18,17.70
2011,07,25,16,19,16.10
2011,07,25,16,20,25.70
2011,07,25,16,21,29.00
2011,07,25,16,22,19.30
2011,07,25,16,23,19.30
2011,07,25,16,24,11.30
2011,07,25,16,25,4.80
2011,07,25,16,26,9.60
2011,07,25,16,27,24.20
2011,07,25,16,28,27.40
2011,07,25,16,29,25.70
2011,07,25,16,30,20.90
2011,07,25,16,31,6.40
2011,07,25,16,32,19.30
2011,07,25,16,33,11.30
2011,07,25,16,34,19.30
2011,07,25,16,35,33.80
2011,07,25,16,36,32.20
2011,07,25,16,37,24.20
2011,07,25,16,38,32.20
2011,07,25,16,39,24.20
2011,07,25,16,40,22.50
2011,07,25,16,41,14.50
2011,07,25,16,42,29.00
2011,07,25,16,43,17.70
2011,07,25,16,44,6.40
2011,07,25,16,45,25.70
2011,07,25,16,46,14.50
2011,07,25,16,47,24.20
2011,07,25,16,48,27.40
2011,07,25,16,49,17.70
2011,07,25,16,50,22.50
2011,07,25,16,51,17.70
2011,07,25,16,52,17.70
2011,07,25,16,53,16.10
2011,07,25,16,54,20.90
2011,07,25,16,55,24.20
2011,07,25,16,56,14.50
2011,07,25,16,57,27.40
2011,07,25,16,58,14.50
2011,07,25,16,59,6.40
2011,07,25,17,00,4.80
2011,07,25,17,01,9.60
2011,07,25,17,02,4.80
2011,07,25,17,03,6.40
2011,07,25,17,04,11.30
2011,07,25,17,05,24.20
2011,07,25,17,06,29.00
2011,07,25,17,07,11.30
2011,07,25,17,08,9.60
2011,07,25,17,09,30.60
2011,07,25,17,10,20.90
2011,07,25,17,11,30.60
2011,07,25,17,12,30.60
2011,07,25,17,13,25.70
2011,07,25,17,14,9.60
2011,07,25,17,15,11.30
2011,07,25,17,16,19.30
2011,07,25,17,17,16.10
2011,07,25,17,18,27.40
2011,07,25,17,19,22.50
2011,07,25,17,20,20.90
2011,07,25,17,21,19.30
2011,07,25,17,22,32.20
2011,07,25,17,23,25.70
2011,07,25,17,24,25.70
2011,07,25,17,25,27.40
2011,07,25,17,26,20.90
2011,07,25,17,27,19.30
2011,07,25,17,28,30.60
2011,07,25,17,29,22.50
2011,07,25,17,30,19.30
2011,07,25,17,31,22.50
2011,07,25,17,32,17.70
2011,07,25,17,33,19.30
2011,07,25,17,34,17.70
2011,07,25,17,35,24.20
2011,07,25,17,36,30.60
2011,07,25,17,37,22.50
2011,07,25,17,38,16.10
2011,07,25,17,39,16.10
2011,07,25,17,40,24.20
2011,07,25,17,41,29.00
2011,07,25,17,42,19.30
2011,07,25,17,43,25.70
2011,07,25,17,44,29.00
2011,07,25,17,45,16.10
2011,07,25,17,46,20.90
2011,07,25,17,47,32.20
2011,07,25,17,48,24.20
2011,07,25,17,49,17.70
2011,07,25,17,50,24.20
2011,07,25,17,51,24.20
2011,07,25,17,52,22.50
2011,07,25,17,53,19.30
2011,07,25,17,54,19.30
2011,07,25,17,55,19.30
2011,07,25,17,56,20.90
2011,07,25,17,57,29.00
2011,07,25,17,58,11.30
2011,07,25,17,59,22.50
2011,07,25,18,00,22.50
2011,07,25,18,01,9.60
2011,07,25,18,02,29.00
2011,07,25,18,03,25.70
2011,07,25,18,04,22.50
2011,07,25,18,05,24.20
2011,07,25,18,06,19.30
2011,07,25,18,07,20.90
2011,07,25,18,08,20.90
2011,07,25,18,09,27.40
2011,07,25,18,10,16.10
2011,07,25,18,11,30.60
2011,07,25,18,12,22.50
2011,07,25,18,13,16.10
2011,07,25,18,14,16.10
2011,07,25,18,15,11.30
2011,07,25,18,16,22.50
2011,07,25,18,17,17.70
2011,07,25,18,18,19.30
2011,07,25,18,19,14.50
2011,07,25,18,20,19.30
2011,07,25,18,21,22.50
2011,07,25,18,22,14.50
2011,07,25,18,23,11.30
2011,07,25,18,24,17.70
2011,07,25,18,25,19.30
2011,07,25,18,26,19.30
2011,07,25,18,27,20.90
2011,07,25,18,28,25.70
2011,07,25,18,29,20.90
2011,07,25,18,30,24.20
2011,07,25,18,31,24.20
2011,07,25,18,32,25.70
2011,07,25,18,33,19.30
2011,07,25,18,34,20.90
2011,07,25,18,35,29.00
2011,07,25,18,36,24.20
2011,07,25,18,37,27.40
2011,07,25,18,38,16.10
2011,07,25,18,39,17.70
2011,07,25,18,40,24.20
2011,07,25,18,41,17.70
2011,07,25,18,42,19.30
2011,07,25,18,43,12.90
2011,07,25,18,44,24.20
2011,07,25,18,45,27.40
2011,07,25,18,46,17.70
2011,07,25,18,47,40.20
2011,07,25,18,48,20.90
2011,07,25,18,49,19.30
2011,07,25,18,50,30.60
2011,07,25,18,51,22.50
2011,07,25,18,52,22.50
2011,07,25,18,53,20.90
2011,07,25,18,54,22.50
2011,07,25,18,55,17.70
2011,07,25,18,56,9.60
2011,07,25,18,57,30.60
2011,07,25,18,58,24.20
2011,07,25,18,59,22.50
2011,07,25,19,00,14.50
2011,07,25,19,01,14.50
2011,07,25,19,02,22.50
2011,07,25,19,03,9.60
2011,07,25,19,04,20.90
2011,07,25,19,05,20.90
2011,07,25,19,06,27.40
2011,07,25,19,07,17.70
2011,07,25,19,08,29.00
2011,07,25,19,09,19.30
2011,07,25,19,10,11.30
2011,07,25,19,11,24.20
2011,07,25,19,12,17.70
2011,07,25,19,13,19.30
2011,07,25,19,14,14.50
2011,07,25,19,15,17.70
2011,07,25,19,16,32.20
2011,07,25,19,17,30.60
2011,07,25,19,18,22.50
2011,07,25,19,19,20.90
2011,07,25,19,20,27.40
2011,07,25,19,21,20.90
2011,07,25,19,22,19.30
2011,07,25,19,23,24.20
2011,07,25,19,24,22.50
2011,07,25,19,25,20.90
2011,07,25,19,26,14.50
2011,07,25,19,27,27.40
2011,07,25,19,28,25.70
2011,07,25,19,29,20.90
2011,07,25,19,30,27.40
2011,07,25,19,31,16.10
2011,07,25,19,32,20.90
2011,07,25,19,33,22.50
2011,07,25,19,34,14.50
2011,07,25,19,35,12.90
2011,07,25,19,36,19.30
2011,07,25,19,37,20.90
2011,07,25,19,38,22.50
2011,07,25,19,39,22.50
2011,07,25,19,40,11.30
2011,07,25,19,41,22.50
2011,07,25,19,42,24.20
2011,07,25,19,43,16.10
2011,07,25,19,44,19.30
2011,07,25,19,45,16.10
2011,07,25,19,46,16.10
2011,07,25,19,47,14.50
2011,07,25,19,48,6.40
2011,07,25,19,49,14.50
2011,07,25,19,50,14.50
2011,07,25,19,51,19.30
2011,07,25,19,52,22.50
2011,07,25,19,53,20.90
2011,07,25,19,54,14.50
2011,07,25,19,55,16.10
2011,07,25,19,56,9.60
2011,07,25,19,57,19.30
2011,07,25,19,58,22.50
2011,07,25,19,59,25.70
2011,07,25,20,00,20.90